Sioux Falls, SD

1:11 AM CDT on October 21, 2019 (GMT -0500)
Foss

Weather History for KFSD - August, 2019

Change the Weather History Date:

Sunday, August 18, 2019

  Actual Average Record
Temperature  
Mean Temperature 67 °F 71 °F  
Max Temperature 74 °F 82 °F 101 °F (1983)
Min Temperature 59 °F 60 °F 44 °F (2002)
Degree Days  
Heating Degree Days 0 1  
Month to date heating degree days 0 5  
Since 1 June heating degree days 20 64  
Since 1 July heating degree days 0 13  
Cooling Degree Days 2 6  
Month to date cooling degree days 141 130  
Year to date cooling degree days 669 557  
Since 1 June cooling degree days 654 521  
Growing Degree Days 17 (Base 50)    
Moisture  
Dew Point 59 °F    
Average Humidity 75    
Maximum Humidity 93    
Minimum Humidity 57    
Precipitation  
Precipitation 0.00 in 0.10 in 1.24 in (1947)
Month to date precipitation 1.83 1.81  
Year to date precipitation 29.02 18.15  
Snow  
Snow 0.00 in 0.00 in 0.00 in ()
Month to date snowfall T 0.0  
Since 1 June snowfall T 0.0  
Since 1 July snowfall T 0.0  
Snow Depth 0.00 in    
Sea Level Pressure  
Sea Level Pressure 29.86 in    
Wind  
Wind Speed 6 mph (NW)    
Max Wind Speed 16 mph    
Max Gust Speed 20 mph    
Visibility 10 miles    
Events      
T = Trace of Precipitation, MM = Missing Value Source: NWS Daily Summary

Daily Weather History Graph

Daily Weather History Graph

Search for Another Location

Airport or City:

Astronomy

Aug. 18, 2019 Rise Set
Actual Time 6:34 AM CDT 8:26 PM CDT
Civil Twilight 6:04 AM CDT 8:56 PM CDT
Nautical Twilight 5:26 AM CDT 9:34 PM CDT
Astronomical Twilight 4:45 AM CDT 10:14 PM CDT
Moon 10:16 PM CDT (8/18) 9:24 AM CDT (8/18)
Length of Visible Light 14h 52m
Length of Day
13h 51m
Waning Gibbous, 91% of the Moon is Illuminated
Aug 18
Waning Gibbous
Aug 23
Last Quarter
Aug 30
New
Sep 5
First Quarter
Sep 13
Full

Hourly Weather History & Observations

Time (CDT) Temp. Dew Point Humidity Pressure Visibility Wind Dir Wind Speed Gust Speed Precip Events Conditions
12:56 AM 64.0 °F 60.1 °F 87% 29.67 in 10.0 mi North 6.9 mph - N/A   Partly Cloudy
1:56 AM 64.0 °F 60.1 °F 87% 29.73 in 10.0 mi NW 10.4 mph - N/A   Mostly Cloudy
2:56 AM 63.0 °F 61.0 °F 93% 29.73 in 10.0 mi SSW 5.8 mph - N/A   Clear
3:56 AM 62.1 °F 60.1 °F 93% 29.74 in 10.0 mi NNW 4.6 mph - N/A   Clear
4:56 AM 63.0 °F 60.1 °F 90% 29.73 in 10.0 mi NNW 8.1 mph - N/A   Clear
5:56 AM 62.1 °F 60.1 °F 93% 29.75 in 10.0 mi North 4.6 mph - N/A   Clear
6:31 AM 61.0 °F 60.1 °F 97% 29.82 in 10.0 mi Calm Calm - N/A   Mostly Cloudy
6:38 AM 62.1 °F 61.0 °F 96% 29.82 in 10.0 mi SSW 3.5 mph - N/A   Overcast
6:56 AM 63.0 °F 61.0 °F 93% 29.82 in 10.0 mi SW 3.5 mph - N/A   Overcast
7:49 AM 64.0 °F 62.1 °F 93% 29.86 in 10.0 mi WNW 10.4 mph - N/A   Overcast
7:56 AM 64.0 °F 62.1 °F 93% 29.84 in 10.0 mi NNW 12.7 mph - N/A   Overcast
8:38 AM 64.0 °F 61.0 °F 90% 29.89 in 10.0 mi NW 9.2 mph - N/A   Overcast
8:56 AM 66.0 °F 62.1 °F 87% 29.86 in 10.0 mi NNW 11.5 mph - N/A   Mostly Cloudy
9:12 AM 64.9 °F 61.0 °F 87% 29.89 in 10.0 mi NNW 9.2 mph - N/A   Mostly Cloudy
9:41 AM 66.0 °F 60.1 °F 81% 29.90 in 10.0 mi North 5.8 mph - N/A   Mostly Cloudy
9:56 AM 66.0 °F 59.0 °F 78% 29.88 in 10.0 mi NNW 5.8 mph - N/A   Mostly Cloudy
10:56 AM 68.0 °F 60.1 °F 76% 29.92 in 10.0 mi NW 4.6 mph - N/A   Mostly Cloudy
11:56 AM 70.0 °F 60.1 °F 71% 29.94 in 10.0 mi NNW 8.1 mph - N/A   Mostly Cloudy
12:56 PM 70.0 °F 59.0 °F 68% 29.94 in 10.0 mi Variable 5.8 mph - N/A   Mostly Cloudy
1:56 PM 72.0 °F 59.0 °F 64% 29.92 in 10.0 mi WNW 9.2 mph - N/A   Scattered Clouds
2:56 PM 72.0 °F 59.0 °F 64% 29.91 in 10.0 mi NW 9.2 mph - N/A   Scattered Clouds
3:56 PM 73.9 °F 57.9 °F 57% 29.90 in 10.0 mi WNW 6.9 mph - N/A   Scattered Clouds
4:56 PM 73.9 °F 57.0 °F 55% 29.88 in 10.0 mi NW 8.1 mph - N/A   Partly Cloudy
5:56 PM 73.9 °F 57.0 °F 55% 29.88 in 10.0 mi North 8.1 mph - N/A   Clear
6:56 PM 72.0 °F 55.9 °F 57% 29.89 in 10.0 mi North 6.9 mph - N/A   Clear
7:56 PM 69.1 °F 55.9 °F 63% 29.90 in 10.0 mi North 3.5 mph - N/A   Clear
8:56 PM 64.9 °F 57.0 °F 75% 29.91 in 10.0 mi Calm Calm - N/A   Partly Cloudy
9:56 PM 64.0 °F 55.9 °F 75% 29.95 in 10.0 mi Calm Calm - N/A   Partly Cloudy
10:56 PM 64.0 °F 57.0 °F 78% 29.95 in 10.0 mi Calm Calm - N/A   Partly Cloudy
11:56 PM 61.0 °F 57.0 °F 87% 29.96 in 10.0 mi Calm Calm - N/A   Clear